Location: Lussas
(44.6119°N, 4.4726°E)
Time: 14:09:08
(UTC+00:00)

Cosmos 1461 - Pass Details

Date: 26 November 2020
Orbit: 501 x 663 km, 65.0° (Epoch: 27 January)

Event Time Altitude Azimuth Distance (km) Brightness Sun altitude
Exits shadow 05:08:37 36° 295° (WNW) 1,023 3.6 -18.2°
Maximum altitude 05:10:08 53° 241° (WSW) 797 3.3 -17.9°
Drops below altitude 10° 05:14:33 10° 165° (SSE) 1,993 6.0 -17.2°
Sets 05:16:48 0° 161° (SSE) 2,870 7.0 -16.8°
